Weather History for LKPR - September, 2013

Change the Weather History Date:

Sunday, September 22, 2013

  Actual Average Record
Temperature  
Mean Temperature 52 °F -  
Max Temperature 60 °F 59 °F - (-1)
Min Temperature 45 °F 41 °F - (-1)
Degree Days  
Heating Degree Days 12    
Growing Degree Days 2 (Base 50)    
Moisture  
Dew Point 48 °F    
Average Humidity 83    
Maximum Humidity 100    
Minimum Humidity 58    
Precipitation  
Precipitation 0.00 in 0.04 in - ()
Sea Level Pressure  
Sea Level Pressure 30.30 in    
Wind  
Wind Speed 8 mph ()    
Max Wind Speed 14 mph    
Max Gust Speed -    
Visibility 6.8 miles    
Events      
Averages and records for this station are not official NWS values.
T = Trace of Precipitation, MM = Missing Value Source: Averaged Metar Reports

Daily Weather History Graph

Daily Weather History Graph

Search for Another Location

Airport or City:

Trip Planner

Search our weather history database for the weather conditions in past years. The results will help you decide how hot, cold, wet, or windy it might be!

Date:

Astronomy

Sep. 22, 2013 Rise Set
Actual Time 6:49 AM CEST 7:01 PM CEST
Civil Twilight 6:16 AM CEST 7:33 PM CEST
Nautical Twilight 5:38 AM CEST 8:11 PM CEST
Astronomical Twilight 4:59 AM CEST 8:50 PM CEST
Moon 8:15 PM CEST (9/22) 10:13 AM CEST (9/22)
Length of Visible Light 13h 16m
Length of Day
12h 11m
Waning Gibbous, 90% of the Moon is Illuminated
Sep 22
Waning Gibbous
Sep 27
Last Quarter
Oct 5
New
Oct 12
First Quarter
Oct 19
Full

Hourly Weather History & Observations

Time (CEST) Temp. Windchill Dew Point Humidity Pressure Visibility Wind Dir Wind Speed Gust Speed Precip Events Conditions
12:00 AM 48.2 °F - 46.4 °F 93% 30.33 in - West 4.6 mph - N/A   Clear
12:30 AM 46.4 °F 42.9 °F 44.6 °F 93% 30.33 in - WSW 6.9 mph - N/A   Clear
1:00 AM 46.4 °F 42.4 °F 44.6 °F 93% 30.36 in - SW 8.1 mph - N/A   Clear
1:30 AM 46.4 °F 42.4 °F 44.6 °F 93% 30.33 in - SW 8.1 mph - N/A   Clear
2:00 AM 47 °F - 46 °F 93% 30.37 in 7 mi SSW 6.7 mph - -   Clear
2:00 AM 46.4 °F 42.4 °F 44.6 °F 93% 30.33 in - SW 8.1 mph - N/A   Clear
2:30 AM 46.4 °F 41.9 °F 44.6 °F 93% 30.33 in - SW 9.2 mph - N/A   Clear
3:00 AM 46.4 °F 42.4 °F 44.6 °F 93% 30.33 in - WSW 8.1 mph - N/A   Clear
3:30 AM 46.4 °F 42.4 °F 44.6 °F 93% 30.33 in - SW 8.1 mph - N/A   Clear
4:00 AM 46.4 °F 42.4 °F 44.6 °F 93% 30.33 in - SW 8.1 mph - N/A   Clear
4:30 AM 46.4 °F 42.4 °F 46.4 °F 100% 30.33 in - SW 8.1 mph - N/A   Clear
5:00 AM 46.4 °F 42.9 °F 46.4 °F 100% 30.33 in - SW 6.9 mph - N/A   Clear
5:30 AM 46.4 °F 42.9 °F 44.6 °F 93% 30.33 in 6.2 mi SW 6.9 mph - N/A   Partly Cloudy
6:00 AM 46.4 °F 42.4 °F 44.6 °F 93% 30.33 in 6.2 mi SW 8.1 mph - N/A   Partly Cloudy
6:30 AM 46.4 °F 42.9 °F 44.6 °F 93% 30.33 in 6.2 mi SW 6.9 mph - N/A   Partly Cloudy
7:00 AM 46.4 °F 42.9 °F 44.6 °F 93% 30.33 in 6.2 mi SW 6.9 mph - N/A   Partly Cloudy
7:30 AM 48.2 °F - 46.4 °F 93% 30.33 in - SW 8.1 mph - N/A   Clear
8:00 AM 49 °F - 47 °F 90% 30.37 in 12 mi WSW 8.9 mph - -   Mostly Cloudy
8:00 AM 48.2 °F - 46.4 °F 93% 30.33 in - WSW 8.1 mph - N/A   Clear
8:30 AM 48.2 °F - 46.4 °F 93% 30.33 in - SW 8.1 mph - N/A   Clear
9:00 AM 50.0 °F - 48.2 °F 94% 30.33 in - WSW 9.2 mph - N/A   Clear
9:30 AM 51.8 °F - 48.2 °F 88% 30.33 in - WSW 9.2 mph - N/A   Clear
10:00 AM 53.6 °F - 50.0 °F 88% 30.33 in - WSW 9.2 mph - N/A   Clear
10:30 AM 55.4 °F - 50.0 °F 82% 30.33 in 6.2 mi WSW 9.2 mph - N/A   Partly Cloudy
11:00 AM 55.4 °F - 50.0 °F 82% 30.33 in 6.2 mi WSW 10.4 mph - N/A   Partly Cloudy
11:30 AM 57.2 °F - 50.0 °F 77% 30.33 in 6.2 mi WSW 11.5 mph - N/A   Partly Cloudy
12:00 PM 57.2 °F - 48.2 °F 72% 30.33 in 6.2 mi WSW 12.7 mph - N/A   Mostly Cloudy
12:30 PM 59.0 °F - 48.2 °F 67% 30.33 in 6.2 mi West 12.7 mph - N/A   Mostly Cloudy
1:00 PM 59.0 °F - 48.2 °F 67% 30.33 in 6.2 mi West 13.8 mph - N/A   Mostly Cloudy
1:30 PM 59.0 °F - 48.2 °F 67% 30.33 in 6.2 mi West 11.5 mph - N/A   Mostly Cloudy
2:00 PM 60 °F - 49 °F 58% 30.31 in 31 mi WSW 8.9 mph - -   Mostly Cloudy
2:00 PM 59.0 °F - 48.2 °F 67% 30.30 in 6.2 mi West 10.4 mph - N/A   Mostly Cloudy
2:30 PM 59.0 °F - 48.2 °F 67% 30.30 in 6.2 mi WSW 10.4 mph - N/A   Mostly Cloudy
3:00 PM 59.0 °F - 50.0 °F 72% 30.30 in 6.2 mi West 10.4 mph - N/A   Mostly Cloudy
3:30 PM 59.0 °F - 50.0 °F 72% 30.30 in 6.2 mi West 9.2 mph - N/A   Mostly Cloudy
4:00 PM 59.0 °F - 48.2 °F 67% 30.30 in 6.2 mi West 9.2 mph - N/A   Overcast
4:30 PM 59.0 °F - 48.2 °F 67% 30.27 in 6.2 mi West 9.2 mph - N/A   Overcast
5:00 PM 59.0 °F - 48.2 °F 67% 30.27 in 6.2 mi West 9.2 mph - N/A   Overcast
5:30 PM 57.2 °F - 48.2 °F 72% 30.27 in 6.2 mi West 8.1 mph - N/A   Overcast
6:00 PM 57.2 °F - 48.2 °F 72% 30.27 in 6.2 mi WSW 6.9 mph - N/A   Overcast
6:30 PM 57.2 °F - 48.2 °F 72% 30.27 in 6.2 mi WSW 8.1 mph - N/A   Mostly Cloudy
7:00 PM 55.4 °F - 48.2 °F 77% 30.24 in 6.2 mi WSW 8.1 mph - N/A   Mostly Cloudy
7:30 PM 55.4 °F - 48.2 °F 77% 30.24 in 6.2 mi WSW 8.1 mph - N/A   Mostly Cloudy
8:00 PM 54 °F - 49 °F 76% 30.26 in 19 mi WSW 8.9 mph - -   Partly Cloudy
8:00 PM 53.6 °F - 48.2 °F 82% 30.24 in 6.2 mi WSW 8.1 mph - N/A   Scattered Clouds
8:30 PM 53.6 °F - 50.0 °F 88% 30.24 in 6.2 mi WSW 9.2 mph - N/A   Mostly Cloudy
9:00 PM 53.6 °F - 50.0 °F 88% 30.24 in 6.2 mi WSW 8.1 mph - N/A   Mostly Cloudy
9:30 PM 53.6 °F - 50.0 °F 88% 30.24 in 6.2 mi WSW 9.2 mph - N/A   Mostly Cloudy
10:00 PM 55.4 °F - 50.0 °F 82% 30.24 in 6.2 mi WSW 10.4 mph - N/A   Overcast
10:37 PM 53.6 °F - 50.0 °F 88% 30.24 in 6.2 mi West 9.2 mph - N/A   Mostly Cloudy
11:00 PM 53.6 °F - 50.0 °F 88% 30.24 in 6.2 mi West 8.1 mph - N/A   Mostly Cloudy
11:30 PM 53.6 °F - 50.0 °F 88% 30.24 in 6.2 mi WSW 11.5 mph - N/A   Mostly Cloudy